Content
SEND FEEDBACK

Daily
Averages
Monthly
Summary
United States of America

EARTH CITY, MISSOURI


Home > North America > United States > Missouri
Elevation: 476 feet     Latitude: 38 46N     Longitude: 090 30W

WEATHER
 
SELECT A DAY
Number of Records: 203,416;   Date Range: 1/1/95 - 7/26/14
 
SHARE

PRINT THIS DATA

[ ← Previous Day ]
WEATHER ALMANAC - JANUARY 23, 2013
[ Next Day → ]
[ °C ]   °F
Weather ElementAverageHighLow
Temperature28.3 °F41 °F (2:51 pm)14 °F (2:51 am)
Dewpoint15.2 °F21 °F (3:51 pm)8.1 °F (4:51 am)
Humidity59.4 %80 % (2:51 am)43 % (2:51 pm)
Barometer30.30 in30.42 in (1:51 am)30.19 in (3:51 pm)
Wind Speed5.8 mph11.5 mph (11:51 pm)
Weather ElementAverage
Visibility9.5 mi
Wind DirectionSSW (213.5 °)

Weather ElementTotal
Precipitation---
Heating Degree Days37.5 (Base 65)
Averaged from 23 records on January 23, 2013
WEATHER CONDITIONS BREAKOUT
WIND DIRECTION BREAKOUT
WEATHER BY HOUR - JANUARY 23, 2013
[ °C ]   °F
Local TimeTemperatureDewpointHumidityBarometerVisibilityWind DirectionWind SpeedGust SpeedPrecipitationEventsConditions
1:51 AM15.1 °F9.0 °F77 %30.42 in8.0 miEast (80°)3.5 mphScattered Clouds
2:51 AM14.0 °F9.0 °F80 %30.40 in8.0 miESE (120°)4.6 mphPartly Cloudy
3:51 AM15.1 °F9.0 °F77 %30.37 in8.0 miSE (130°)6.9 mphPartly Cloudy
4:51 AM14.0 °F8.1 °F77 %30.36 in8.0 miESE (120°)5.8 mphClear
5:51 AM17.1 °F10.0 °F74 %30.36 in9.0 miSSE (150°)4.6 mphClear
6:51 AM17.1 °F10.0 °F74 %30.35 in9.0 miSSE (160°)3.5 mphScattered Clouds
7:51 AM19.0 °F10.0 °F68 %30.35 in9.0 miSouth (170°)5.8 mphMostly Cloudy
8:51 AM21.9 °F10.9 °F63 %30.34 in10.0 miSouth (190°)6.9 mphMostly Cloudy
9:51 AM27.0 °F12.0 °F53 %30.33 in10.0 miSW (220°)3.5 mphMostly Cloudy
10:51 AM30.9 °F16.0 °F54 %30.30 in10.0 miSW (220°)4.6 mphMostly Cloudy
11:51 AM35.1 °F18.0 °F50 %30.27 in10.0 miWSW (250°)5.8 mphPartly Cloudy
12:51 PM37.0 °F19.0 °F48 %30.22 in10.0 miCalmMostly Cloudy
1:51 PM39.9 °F19.9 °F45 %30.20 in10.0 miWest (270°)5.8 mphMostly Cloudy
2:51 PM41.0 °F19.9 °F43 %30.20 in10.0 miWSW (250°)8.1 mphMostly Cloudy
3:51 PM41.0 °F21.0 °F45 %30.19 in10.0 miNNW (330°)5.8 mphMostly Cloudy
4:51 PM37.9 °F21.0 °F51 %30.20 in10.0 miNNW (330°)4.6 mphMostly Cloudy
5:51 PM35.1 °F21.0 °F57 %30.21 in10.0 miCalmScattered Clouds
6:51 PM34.0 °F21.0 °F59 %30.24 in10.0 miNW (310°)5.8 mphScattered Clouds
7:51 PM34.0 °F21.0 °F59 %30.27 in10.0 miNW (310°)5.8 mphScattered Clouds
8:51 PM35.1 °F19.9 °F54 %30.29 in10.0 miNW (320°)10.4 mphPartly Cloudy
9:51 PM32.0 °F15.1 °F50 %30.32 in10.0 miNW (320°)10.4 mphPartly Cloudy
10:51 PM30.0 °F14.0 °F51 %30.35 in10.0 miNNW (340°)9.2 mphPartly Cloudy
11:51 PM28.0 °F15.1 °F58 %30.38 in10.0 miNW (320°)11.5 mphPartly Cloudy
Hourly data recorded from KSTL, located miles away from Earth City, Missouri







STORIES FROM OUR PARTNERS